Weather History for Los Angeles Downtown, CA

Change the Weather History Date:

Saturday, March 23, 2013

  Actual Average Record
Temperature  
Mean Temperature 64 °F 61 °F  
Max Temperature 72 °F 71 °F 88 °F (1926)
Min Temperature 55 °F 51 °F 36 °F (1898)
Degree Days  
Heating Degree Days 1 5  
Month to date heating degree days 82 119  
Since 1 July heating degree days 857 894  
Cooling Degree Days 0 1  
Month to date cooling degree days 12 20  
Year to date cooling degree days 20 43  
Growing Degree Days 13 (Base 50)    
Moisture  
Dew Point 50 °F    
Average Humidity 62    
Maximum Humidity 86    
Minimum Humidity 38    
Precipitation  
Precipitation 0.00 in 0.06 in 2.08 in (1904)
Month to date precipitation 0.52 1.99  
Year to date precipitation 1.90 8.91  
Since 1 July precipitation 5.12 13.23  
Sea Level Pressure  
Sea Level Pressure 29.96 in    
Wind  
Wind Speed 2 mph (WNW)    
Max Wind Speed 9 mph    
Max Gust Speed 14 mph    
Visibility 9 miles    
Events      
T = Trace of Precipitation, MM = Missing Value Source: NWS Daily Summary

Daily Weather History Graph

Daily Weather History Graph

Search for Another Location

Airport:

Trip Planner

Search our weather history database for the weather conditions in past years. The results will help you decide how hot, cold, wet, or windy it might be!

Date:

Astronomy

Mar. 23, 2013 Rise Set
Actual Time 6:52 AM PDT 7:07 PM PDT
Civil Twilight 6:27 AM PDT 7:32 PM PDT
Nautical Twilight 5:58 AM PDT 8:01 PM PDT
Astronomical Twilight 5:28 AM PDT 8:31 PM PDT
Moon 3:47 PM PDT (3/23) 4:22 AM PDT (3/23)
Length of Visible Light 13h 05m
Length of Day
12h 15m
Waxing Gibbous, 86% of the Moon is Illuminated
Mar 23
Waxing Gibbous
Mar 27
Full
Apr 2
Last Quarter
Apr 10
New
Apr 18
First Quarter

Hourly Weather History & Observations

Time (PDT) Temp. Dew Point Humidity Pressure Visibility Wind Dir Wind Speed Gust Speed Precip Events Conditions
12:47 AM 57.0 °F 50.0 °F 77% 29.91 in 10.0 mi East 4.6 mph - N/A   Clear
1:47 AM 55.9 °F 51.1 °F 84% 29.91 in 8.0 mi Calm Calm - N/A   Clear
1:56 AM 55.4 °F 51.8 °F 88% 29.92 in 8.0 mi East 3.5 mph - N/A   Partly Cloudy
2:11 AM 55.4 °F 51.8 °F 88% 29.92 in 8.0 mi Variable 3.5 mph - N/A   Mostly Cloudy
2:38 AM 55.4 °F 51.8 °F 88% 29.91 in 8.0 mi Calm Calm - N/A   Mostly Cloudy
2:47 AM 55.0 °F 51.1 °F 86% 29.91 in 8.0 mi Calm Calm - N/A   Mostly Cloudy
3:47 AM 55.9 °F 51.1 °F 84% 29.91 in 9.0 mi Calm Calm - N/A   Overcast
4:47 AM 55.9 °F 50.0 °F 80% 29.91 in 9.0 mi Calm Calm - N/A   Overcast
5:28 AM 55.4 °F 50.0 °F 82% 29.93 in 9.0 mi Calm Calm - N/A   Scattered Clouds
5:47 AM 55.0 °F 48.9 °F 80% 29.94 in 9.0 mi Calm Calm - N/A   Scattered Clouds
5:53 AM 55.4 °F 48.2 °F 77% 29.94 in 9.0 mi Calm Calm - N/A   Mostly Cloudy
6:43 AM 55.4 °F 48.2 °F 77% 29.95 in 8.0 mi NE 3.5 mph - N/A   Scattered Clouds
6:47 AM 55.0 °F 48.9 °F 80% 29.95 in 8.0 mi Calm Calm - N/A   Scattered Clouds
7:42 AM 55.4 °F 48.2 °F 77% 29.97 in 8.0 mi Calm Calm - N/A   Mostly Cloudy
7:47 AM 55.0 °F 48.9 °F 80% 29.97 in 8.0 mi Calm Calm - N/A   Mostly Cloudy
8:47 AM 55.9 °F 48.9 °F 77% 30.00 in 8.0 mi East 4.6 mph - N/A   Mostly Cloudy
9:19 AM 57.2 °F 48.2 °F 72% 30.00 in 7.0 mi Variable 4.6 mph - N/A   Scattered Clouds
9:47 AM 61.0 °F 48.9 °F 64% 30.01 in 8.0 mi Calm Calm - N/A   Clear
10:47 AM 63.0 °F 48.9 °F 60% 29.99 in 8.0 mi Calm Calm - N/A   Clear
11:47 AM 68.0 °F 48.0 °F 49% 29.99 in 8.0 mi Calm Calm - N/A   Clear
12:47 PM 71.1 °F 44.1 °F 38% 29.99 in 10.0 mi Calm Calm - N/A   Clear
1:47 PM 70.0 °F 50.0 °F 49% 29.97 in 10.0 mi West 4.6 mph - N/A   Clear
2:47 PM 68.0 °F 50.0 °F 52% 29.96 in 10.0 mi Variable 3.5 mph - N/A   Clear
3:47 PM 66.9 °F 48.9 °F 52% 29.95 in 10.0 mi Variable 4.6 mph - N/A   Clear
4:47 PM 66.9 °F 50.0 °F 54% 29.94 in 10.0 mi Variable 3.5 mph - N/A   Clear
5:47 PM 64.0 °F 48.0 °F 56% 29.95 in 10.0 mi West 8.1 mph - N/A   Clear
6:47 PM 60.1 °F 51.1 °F 72% 29.96 in 10.0 mi West 5.8 mph - N/A   Clear
7:47 PM 60.1 °F 51.1 °F 72% 29.97 in 10.0 mi Variable 4.6 mph - N/A   Clear
8:47 PM 59.0 °F 52.0 °F 78% 29.99 in 10.0 mi West 3.5 mph - N/A   Clear
9:47 PM 57.9 °F 52.0 °F 81% 30.00 in 9.0 mi Calm Calm - N/A   Clear
10:47 PM 57.0 °F 53.1 °F 87% 30.01 in 8.0 mi Calm Calm - N/A   Clear
11:47 PM 57.0 °F 53.1 °F 87% 30.00 in 7.0 mi Calm Calm - N/A   Clear